[[{"header":{"parameterUnit":"m.s-1","parameterCategory":1,"la1":30.2991,"la2":30.254,"lo1":-89.0895,"lo2":-89.0444,"dy":0.0017,"dx":0.0017,"nx":28,"ny":28,"refTime":"2024-08-02T21:00:00:Z","depth":0,"parameterNumber":2,"parameterNumberName":"U-component_of_WINDS"},"data":[0,0,0,0,0,0,0,0,0,0,0,0,0,0,0,0,0,0,0,0,0,0,0,0,0,0,0,0,0,0,0,0,0,0,0,0,0,0,0,0,0,0,0,0,0,0,0,0,0,0,0,0,0,0,0,0,0,0,-0.0256,-0.0255,0,-0.0167,-0.0166,-0.0165,-0.0139,-0.0139,-0.014,-0.014,-0.0049,-0.0046,-0.0043,0,0,0,0,0,0,0,0,0,0,0,0,0,-0.0402,-0.0399,-0.0256,-0.0255,-0.0254,-0.0167,-0.0166,-0.0165,-0.0139,-0.0139,-0.014,-0.014,-0.005,-0.0046,-0.0043,0,0,0,0,0,0,0,0,0,0,0,0,0,-0.0328,-0.0398,-0.0256,-0.0231,-0.0227,-0.0168,-0.0166,-0.0165,-0.0139,-0.0139,-0.014,-0.0141,-0.0051,-0.0047,-0.0042,-0.0002,0,0,-0.0029,-0.0027,0,0,0,0,0,0,0,0,-0.0332,-0.0323,-0.0235,-0.0232,-0.0229,-0.0165,-0.0184,-0.011,-0.0139,-0.0172,-0.014,-0.0141,-0.0087,-0.008,-0.0061,0.0002,0.0006,-0.0029,-0.0026,-0.0024,-0.0023,0,0,0,0,0,0,0,-0.0338,-0.0327,-0.0221,-0.0234,-0.023,-0.0223,-0.0213,-0.017,-0.0127,-0.0169,-0.0167,-0.0157,-0.0085,-0.0066,-0.0059,0.0008,-0.0029,-0.0025,-0.0023,-0.0021,0.0111,0.0112,0,0,0,0,0,0,-0.0347,-0.0331,-0.0224,-0.0218,-0.0283,-0.022,-0.0209,-0.0185,-0.0127,-0.0119,-0.0157,-0.0156,-0.0073,-0.0064,-0.0056,-0.0004,-0.0024,-0.002,-0.0018,0.011,0.0111,0.0112,0,0,0,0,0,0,-0.035,-0.0338,-0.0227,-0.0274,-0.0259,-0.0216,-0.0189,-0.0182,-0.0163,-0.0118,-0.011,-0.0145,-0.0073,-0.0062,-0.0015,-0.0,-0.0019,-0.0015,0.0109,0.011,0.0112,0.01,0,0,0,0,0,0,-0.0355,-0.0339,-0.0324,-0.0274,-0.0257,-0.0189,-0.0188,-0.018,-0.0156,-0.0154,-0.0104,-0.0097,-0.0073,-0.0022,-0.0011,0.0006,-0.0011,0.0108,0.0109,0.0111,0.0099,0.0101,0.0102,0,0,0,0,0,-0.036,-0.0331,-0.0323,-0.0311,-0.0237,-0.0188,-0.0178,-0.0151,-0.0155,-0.0139,-0.0109,-0.0098,-0.0003,-0.0017,-0.0005,0.0013,0.0107,0.0109,0.0111,0.0099,0.0101,0.0102,0,0,0,0,0,0,-0.0381,-0.0324,-0.0315,-0.0269,-0.0234,-0.0184,-0.0163,-0.015,-0.0113,-0.0114,-0.0081,-0.007,-0.0026,-0.0001,-0.0018,0.0056,0.0052,0.0057,0.0039,0.0041,0.0042,0.0036,-0.0008,0,0,0,0,0,-0.038,-0.0345,-0.0297,-0.0261,-0.0244,-0.0207,-0.0184,-0.0166,-0.0128,-0.0113,-0.008,-0.0044,-0.0005,0.0019,0.0057,0.0103,0.0115,0.0122,0.0123,0.0124,0.0128,0.0156,0.016,0.0119,0.0119,0.0119,0,0,-0.0378,-0.0343,-0.0323,-0.0265,-0.0235,-0.0199,-0.0194,-0.0157,-0.013,-0.0107,-0.0061,-0.0036,0.0008,0.0055,0.0077,0.0076,0.0142,0.0127,0.0128,0.0131,0.0158,0.0162,0.0166,0.012,0.012,0.012,0,0,-0.0356,-0.0326,-0.0293,-0.0263,-0.0218,-0.0193,-0.0184,-0.0136,-0.0118,-0.0071,-0.0053,-0.002,0.0045,0.0075,0.0099,0.0135,0.0146,0.0146,0.0154,0.0181,0.0184,0.0187,0.02,0.0205,0.015,0.015,0.015,0,-0.036,-0.0305,-0.0277,-0.024,-0.0214,-0.0192,-0.0156,-0.0129,-0.0074,-0.0057,-0.0058,0.0025,0.0056,0.0111,0.012,0.0138,0.0149,0.014,0.0181,0.0184,0.0188,0.0201,0.0206,0.0149,0.0149,0.0149,0.0149,0,-0.0311,-0.0274,-0.0251,-0.0199,-0.017,-0.0135,-0.01,-0.0074,-0.0058,-0.0033,0.0016,0.0053,0.01,0.0114,0.013,0.0172,0.017,0.0174,0.0171,0.0191,0.0204,0.0209,0.0149,0.0149,0.0149,0.0149,0,0,-0.0301,-0.0232,-0.0224,-0.0199,-0.0147,-0.0117,-0.008,-0.0034,-0.0013,0.0025,0.0058,0.0113,0.0118,0.0145,0.0165,0.0188,0.0215,0.019,0.0191,0.0193,0.0265,0.0262,0.0267,0.0223,0.0224,0.0225,0.0262,0,-0.0273,-0.0205,-0.0177,-0.0123,-0.0087,-0.0064,-0.0031,0.0005,0.003,0.0065,0.0093,0.0132,0.0135,0.0152,0.0176,0.0206,0.023,0.0204,0.0255,0.0256,0.0243,0.0274,0.027,0.0302,0.0267,0.0268,0.0268,0,-0.0231,-0.0192,-0.0134,-0.0084,-0.0068,-0.004,0.0005,0.0038,0.008,0.0097,0.0128,0.0147,0.0188,0.0182,0.024,0.0222,0.0245,0.0263,0.0265,0.0271,0.0263,0.0281,0.0313,0.0318,0.0276,0.0276,0.0275,0,-0.0229,-0.0162,-0.0118,-0.0098,-0.0039,-0.0019,0.0006,0.0047,0.0073,0.0113,0.0131,0.0174,0.0198,0.0232,0.0262,0.0255,0.0318,0.0314,0.0334,0.0333,0.0345,0.0344,0.0382,0.036,0.0359,0.0359,0.0359,0,-0.02,-0.0165,-0.0116,-0.0089,-0.0049,-0.0017,0.0023,0.005,0.0087,0.012,0.0142,0.0173,0.0212,0.0248,0.0272,0.0317,0.0327,0.0343,0.0349,0.0341,0.0339,0.0356,0.0354,0.0361,0.036,0.036,0.036,0,-0.0191,-0.0157,-0.0108,-0.0056,-0.0042,-0.0014,0.003,0.0058,0.0085,0.0127,0.0139,0.0181,0.0225,0.0259,0.0316,0.0332,0.038,0.0386,0.0366,0.0369,0.0386,0.0384,0.0437,0.0446,0.0417,0.0417,0.0417,0,-0.0175,-0.0147,-0.0092,-0.0068,-0.0043,-0.0004,0.0023,0.0056,0.0084,0.0135,0.0156,0.0202,0.024,0.0309,0.0345,0.039,0.0397,0.0413,0.0404,0.0396,0.0398,0.0396,0.04,0.0414,0.0414,0.0414,0.0414,0,-0.0149,-0.0133,-0.0095,-0.0051,-0.0019,0.0018,0.0055,0.0073,0.0114,0.0144,0.0189,0.0219,0.0278,0.0323,0.0371,0.0398,0.0413,0.0417,0.0424,0.0416,0.0403,0.0411,0.0369,0.0415,0.0415,0.0415,0.0415,0.0415,-0.0136,-0.011,-0.0066,-0.0024,0.0008,0.0042,0.0071,0.0102,0.0141,0.0191,0.0209,0.0256,0.0299,0.0365,0.0393,0.043,0.0431,0.0441,0.0443,0.0445,0.0445,0.0397,0.0439,0.0439,0.0439,0.0439,0.0439,0,-0.0109,-0.0079,-0.0041,0.0011,0.0045,0.0057,0.0099,0.0126,0.0167,0.0206,0.0243,0.0296,0.0341,0.0381,0.0428,0.045,0.0459,0.0462,0.046,0.0467,0.0441,0.0431,0.0454,0.0454,0.0454,0.0454,0.0454,0.0454,-0.0091,-0.0045,-0.0024,0.0038,0.0067,0.0113,0.0137,0.0169,0.02,0.0258,0.0296,0.0322,0.0362,0.0412,0.0454,0.0465,0.0481,0.0482,0.0495,0.047,0.0468,0.0466,0.0457,0.0485,0.0485,0.0517,0.0517,0.0517]},{"header":{"parameterUnit":"m.s-1","parameterCategory":1,"la1":30.2991,"la2":30.254,"lo1":-89.0895,"lo2":-89.0444,"dy":0.0017,"dx":0.0017,"nx":28,"ny":28,"refTime":"2024-08-02T21:00:00:Z","depth":0,"parameterNumber":3,"parameterNumberName":"V-component_of_WINDS"},"data":[0,0,0,0,0,0,0,0,0,0,0,0,0,0,0,0,0,0,0,0,0,0,0,0,0,0,0,0,0,0,0,0,0,0,0,0,0,0,0,0,0,0,0,0,0,0,0,0,0,0,0,0,0,0,0,0,0,0,0.93,0.93,0,0.9307,0.9307,0.9307,0.9306,0.9306,0.9305,0.9305,0.9312,0.9312,0.9312,0,0,0,0,0,0,0,0,0,0,0,0,0,0.9284,0.9284,0.93,0.93,0.93,0.9307,0.9307,0.9307,0.9306,0.9306,0.9305,0.9305,0.9312,0.9312,0.9312,0,0,0,0,0,0,0,0,0,0,0,0,0,0.9291,0.9284,0.93,0.93,0.93,0.9307,0.9307,0.9307,0.9306,0.9306,0.9305,0.9305,0.9311,0.9312,0.9312,0.9319,0,0,0.9314,0.9314,0,0,0,0,0,0,0,0,0.9291,0.9292,0.93,0.93,0.93,0.9305,0.9304,0.9311,0.9306,0.9304,0.9305,0.9305,0.931,0.931,0.9312,0.9319,0.9319,0.9314,0.9314,0.9314,0.9314,0,0,0,0,0,0,0,0.929,0.9291,0.9303,0.93,0.9301,0.93,0.93,0.9305,0.9308,0.9304,0.9304,0.9305,0.931,0.9312,0.9312,0.9319,0.9314,0.9314,0.9314,0.9314,0.9332,0.9332,0,0,0,0,0,0,0.929,0.9291,0.9303,0.9303,0.9295,0.93,0.9301,0.9304,0.9308,0.9308,0.9305,0.9305,0.9311,0.9312,0.9312,0.932,0.9314,0.9315,0.9315,0.9331,0.9332,0.9332,0,0,0,0,0,0,0.9289,0.9291,0.9302,0.9297,0.9298,0.9301,0.9304,0.9304,0.9306,0.9308,0.9309,0.9306,0.9311,0.9312,0.9317,0.932,0.9315,0.9315,0.9331,0.9331,0.9332,0.9336,0,0,0,0,0,0,0.9289,0.9291,0.9294,0.9297,0.9299,0.9308,0.9304,0.9304,0.9307,0.9307,0.931,0.931,0.9311,0.9316,0.9318,0.9321,0.9315,0.9331,0.9331,0.9332,0.9335,0.9336,0.9337,0,0,0,0,0,0.9288,0.9295,0.9294,0.9295,0.9303,0.9308,0.9309,0.9309,0.9307,0.931,0.9311,0.931,0.9319,0.9317,0.9318,0.9322,0.9331,0.9331,0.9332,0.9335,0.9336,0.9337,0,0,0,0,0,0,0.9292,0.9295,0.9294,0.9302,0.9305,0.9308,0.9311,0.931,0.9314,0.9313,0.9313,0.9314,0.932,0.9321,0.9318,0.9328,0.9325,0.9325,0.9327,0.9328,0.9329,0.9329,0.9316,0,0,0,0,0,0.9293,0.9298,0.93,0.9306,0.9308,0.9309,0.9312,0.9312,0.9314,0.9316,0.9317,0.932,0.9323,0.9325,0.9329,0.9335,0.9336,0.9338,0.9339,0.9339,0.934,0.9343,0.9344,0.9333,0.9333,0.9333,0,0,0.9297,0.9299,0.9302,0.9307,0.9309,0.9313,0.931,0.9315,0.9318,0.9316,0.9322,0.9323,0.9325,0.9331,0.9334,0.9332,0.9343,0.934,0.934,0.9341,0.9344,0.9345,0.9346,0.9334,0.9334,0.9333,0,0,0.9305,0.9307,0.9313,0.9315,0.9318,0.9318,0.932,0.9323,0.9323,0.9329,0.9327,0.933,0.9336,0.9338,0.934,0.9347,0.9346,0.9348,0.9352,0.9355,0.9356,0.9357,0.936,0.9361,0.9349,0.9349,0.9349,0,0.9309,0.9316,0.9316,0.932,0.9323,0.9321,0.9326,0.9328,0.9332,0.9333,0.9331,0.9338,0.934,0.9346,0.9348,0.9349,0.935,0.9348,0.9356,0.9357,0.9358,0.936,0.9361,0.9349,0.9349,0.9349,0.9349,0,0.932,0.9325,0.9329,0.9333,0.9335,0.934,0.934,0.9342,0.9342,0.9342,0.9347,0.9349,0.9352,0.9353,0.9353,0.9359,0.9358,0.9356,0.9353,0.9359,0.9362,0.9363,0.9349,0.9349,0.9349,0.9349,0,0,0.9333,0.9336,0.9337,0.9339,0.9341,0.9344,0.9348,0.9352,0.9354,0.9356,0.9359,0.9364,0.9362,0.9364,0.9363,0.9366,0.9371,0.9363,0.9363,0.9365,0.9378,0.938,0.9381,0.937,0.937,0.937,0.9378,0,0.9342,0.935,0.935,0.9357,0.9361,0.9358,0.9362,0.9363,0.9364,0.9366,0.9366,0.937,0.9367,0.9368,0.937,0.937,0.9374,0.9369,0.9373,0.9374,0.9374,0.9383,0.9385,0.9392,0.9379,0.9379,0.9379,0,0.9355,0.9357,0.9365,0.9366,0.9368,0.9371,0.9374,0.9376,0.9378,0.9377,0.9379,0.9377,0.9381,0.9377,0.9382,0.9379,0.938,0.938,0.938,0.9381,0.9378,0.9385,0.9395,0.9396,0.9381,0.9381,0.9381,0,0.9364,0.9369,0.9374,0.9375,0.9377,0.9379,0.938,0.9381,0.9382,0.9384,0.9385,0.9387,0.9388,0.939,0.9389,0.9386,0.9393,0.9389,0.9393,0.9393,0.9396,0.9396,0.9407,0.9395,0.9395,0.9395,0.9395,0,0.9375,0.938,0.9378,0.9382,0.9387,0.9385,0.939,0.939,0.9391,0.9394,0.9391,0.9394,0.9392,0.9394,0.9393,0.9397,0.9397,0.9397,0.9397,0.9398,0.9398,0.9399,0.9399,0.9396,0.9396,0.9396,0.9396,0,0.9387,0.9386,0.9391,0.9391,0.9392,0.9395,0.9395,0.9398,0.9397,0.9401,0.9402,0.9401,0.9403,0.9401,0.9404,0.9403,0.9408,0.9407,0.9408,0.9408,0.9412,0.9412,0.9425,0.9427,0.9414,0.9414,0.9414,0,0.9395,0.9398,0.9399,0.94,0.9401,0.9404,0.9405,0.9403,0.9405,0.9405,0.9408,0.941,0.9412,0.9415,0.9415,0.9416,0.9415,0.942,0.9416,0.9416,0.9416,0.9416,0.9417,0.9421,0.9421,0.9421,0.9421,0,0.9409,0.9407,0.941,0.9412,0.9414,0.9415,0.9416,0.9417,0.9415,0.9417,0.9419,0.942,0.9422,0.9424,0.9425,0.9425,0.9423,0.9422,0.9424,0.9425,0.9426,0.9426,0.9411,0.9423,0.9422,0.9422,0.9422,0.9422,0.9419,0.9422,0.9423,0.9425,0.9425,0.9426,0.9428,0.9428,0.943,0.9431,0.9429,0.9432,0.9432,0.9433,0.9433,0.9435,0.9433,0.9434,0.9435,0.9435,0.9436,0.9425,0.9435,0.9435,0.9435,0.9435,0.9435,0,0.9434,0.9433,0.9435,0.9437,0.9438,0.9435,0.9436,0.9437,0.944,0.944,0.9441,0.9443,0.9445,0.9443,0.9445,0.9446,0.9445,0.9447,0.9447,0.9447,0.9438,0.9437,0.9447,0.9447,0.9447,0.9447,0.9447,0.9447,0.9442,0.9446,0.9445,0.9449,0.9449,0.9452,0.9452,0.9452,0.9452,0.9455,0.9456,0.9455,0.9454,0.9455,0.9456,0.9455,0.9456,0.9458,0.9457,0.9449,0.9448,0.9446,0.9446,0.9458,0.9458,0.9466,0.9466,0.9466]}]]